Location: Santa Cristina
(46.5667°N, 11.7167°E)
Time: 04:24:24
(UTC+00:00)

BREEZE-M R/B - Pass Details

Date: 21 April 2021
Orbit: 311 x 4505 km, 49.7° (Epoch: 10 May)

Event Time Altitude Azimuth Distance (km) Brightness Sun altitude
Exits shadow 00:19:49 40° 67° (ENE) 1,020 4.3 -29.6°
Drops below altitude 10° 00:24:08 10° 70° (ENE) 2,823 6.9 -29.4°
Sets 00:28:03 0° 71° (ENE) 4,434 8.0 -29.1°
